Location: Campo Alegre
(10.1673°N, 67.4431°W)
Time: 14:50:42
(UTC+00:00)

Cosmos 1603 - Pass Details

Date: 14 April 2024
Orbit: 829 x 860 km, 71.0° (Epoch: 27 May)

Event Time Altitude Azimuth Distance (km) Brightness Sun altitude
Exits shadow 08:54:25 - 187° (S) 2,854 6.2 -21.3°
Reaches altitude 10° 08:55:32 10° 185° (S) 2,427 5.9 -21.0°
Maximum altitude 09:01:01 62° 105° (ESE) 928 4.1 -19.7°
Drops below altitude 10° 09:06:29 10° 25° (NNE) 2,427 6.6 -18.4°
Sets 09:08:57 0° 22° (NNE) 3,362 7.3 -17.8°
